This is the latest recevied weather packets stored in our database for station/object OE3MHU-13. If no packets are shown the sender has not sent any weather packets the latest 10 day(s).
| Time | Temp. | Humidity | Pressure | Rain* | Wind** | Luminosity | Snow |
|---|---|---|---|---|---|---|---|
| 1777940520 | 15° C | 63% | 1011.4 hPa | 0 mm | - | - | - |
| 1777939908 | 15° C | 63% | 1011.4 hPa | 0 mm | - | - | - |
| 1777939601 | 15° C | 63% | 1011.4 hPa | 0 mm | - | - | - |
| 1777938989 | 15° C | 63% | 1011.6 hPa | 0 mm | - | - | - |
| 1777938071 | 15° C | 62% | 1011.7 hPa | 0 mm | - | - | - |
| 1777935011 | 16.67° C | 60% | 1012 hPa | 0 mm | - | - | - |
| 1777933592 | 18.33° C | 56% | 1012.2 hPa | 0 mm | - | - | - |
| 1777932870 | 18.33° C | 55% | 1012.2 hPa | 0 mm | - | - | - |
| 1777932563 | 18.89° C | 54% | 1012.2 hPa | 0 mm | - | - | - |
| 1777931951 | 20° C | 50% | 1012.1 hPa | 0 mm | - | - | - |
| 1777931032 | 20.56° C | 48% | 1011.9 hPa | 0 mm | - | - | - |
| 1777930726 | 20.56° C | 47% | 1012.1 hPa | 0 mm | - | - | - |
| 1777930114 | 20.56° C | 47% | 1012 hPa | 0 mm | - | - | - |
| 1777929814 | 20.56° C | 47% | 1012 hPa | 0 mm | - | - | - |
| 1777929512 | 20.56° C | 47% | 1012.1 hPa | 0 mm | - | - | - |
| 1777929212 | 20.56° C | 46% | 1012.2 hPa | 0 mm | - | - | - |
| 1777928911 | 20.56° C | 46% | 1012.2 hPa | 0 mm | - | - | - |
| 1777928611 | 20.56° C | 46% | 1012.1 hPa | 0 mm | - | - | - |
| 1777928312 | 20.56° C | 46% | 1012.1 hPa | 0 mm | - | - | - |
| 1777928013 | 21.11° C | 45% | 1012.1 hPa | 0 mm | - | - | - |
| 1777926808 | 21.67° C | 44% | 1012.2 hPa | 0 mm | - | - | - |
| 1777925905 | 21.67° C | 43% | 1012.2 hPa | 0 mm | - | - | - |
| 1777925605 | 21.67° C | 43% | 1012.4 hPa | 0 mm | - | - | - |
| 1777925306 | 21.67° C | 43% | 1012.3 hPa | 0 mm | - | - | - |
| 1777924705 | 21.11° C | 44% | 1012.4 hPa | 0 mm | - | - | - |
* Rain latest hour (hover to see other rain measurements)
** Current wind speed in m/s (hover to see current wind gust speed)